Location: Sungai Anya
(2.6167°N, 114.0500°E)
Time: 15:39:00
(UTC+00:00)

Cosmos 1153 Rocket - Pass Details

Date: 07 June 2022
Orbit: 954 x 1005 km, 82.9° (Epoch: 03 July)

Event Time Altitude Azimuth Distance (km) Brightness Sun altitude
Rises 19:56:45 0° 21° (NNE) 3,718 8.2 -32.0°
Reaches altitude 10° 19:59:47 10° 34° (NE) 2,768 7.6 -31.3°
Maximum altitude 20:04:48 25° 86° (E) 1,912 6.6 -30.3°
Drops below altitude 10° 20:09:46 10° 139° (SE) 2,756 7.0 -29.2°
Sets 20:12:46 0° 151° (SSE) 3,699 7.5 -28.5°
